Regional Weather Roundup
Issued by NWS Jackson, KY

Home | Current Version | Previous Version | Graphics & Text | Print | Product List | Glossary On
Versions: 1 2 3 4 5 6 7 8 9 10 11 12 13 14 15 16 17 18 19 20 21 22 23 24 25 26 27 28 29 30 31 32 33 34 35 36 37 38 39 40 41 42 43 44 45 46 47 48 49 50
000
ASUS43 KJKL 262310
RWRJKL

EAST KENTUCKY HOURLY WEATHER ROUNDUP
NATIONAL WEATHER SERVICE JACKSON KY
700 PM EDT TUE MAY 26 2015

NOTE: "FAIR" INDICATES FEW OR NO CLOUDS BELOW 12,000 FEET WITH
NO SIGNIFICANT WEATHER AND/OR OBSTRUCTIONS TO VISIBILITY.

* THESE REPORTS ARE NOT UNDER NWS QUALITY CONTROL AND MAY NOT
  REPORT WEATHER SUCH AS PRECIPITATION AND FOG.

KYZ079-080-083-085-087-088-110-112-115-119-120-270000
...EASTERN KENTUCKY...

CITY           SKY/WX    TMP DP  RH WIND       PRES   REMARKS
JACKSON        MOSUNNY   80  64  58 VRB6      30.06F
LONDON         PTSUNNY   82  61  48 S14G23    30.07S
SOMERSET*      CLOUDY    72  64  78 W14G20    30.10R
MONTICELLO*    CLOUDY    72  72 100 SW9       30.13R THUNDER FOG
MIDDLESBORO*   LGT RAIN  71  70  97 NE3       30.10S
HARLAN APT*    CLOUDY    68  64  88 NW9       30.12S
BLACK MTN*       N/A     63  63 100 S2          N/A
PIKEVILLE APT* SUNNY     82  64  54 CALM      30.09S
BIG SANDY*     MOCLDY    80  66  63 CALM      30.08S
MOREHEAD APT*  PTCLDY    82  66  57 SW5       30.04S
$$

KYZ035-036-041-042-044-050-067-078-099-270000
...CENTRAL KENTUCKY...

CITY           SKY/WX    TMP DP  RH WIND       PRES   REMARKS
MT STERLING*   PTSUNNY   81  64  57 SW8       30.03S
FLEMING/MASON* PTSUNNY   77  70  78 CALM      30.02F
DANVILLE*      CLOUDY    68  63  83 W12G18    30.05F
RICHMOND*      CLOUDY    77  61  57 W23G35    30.07R
LEXINGTON      LGT RAIN  69  67  93 SW16G29   30.04S FOG
FRANKFORT      LGT RAIN  70  65  84 SW14G21   30.02S
$$

KYZ091>093-OHZ055-061-077-WVZ005-015-034-035-042-270000
...SOUTHERN OHIO/WEST VIRGINIA...

CITY           SKY/WX    TMP DP  RH WIND       PRES   REMARKS
COVINGTON      CLOUDY    72  69  90 S8        30.01S
COLUMBUS       CLOUDY    75  67  76 S10       30.01F
DAYTON         CLOUDY    71  68  90 S12       30.00F
WILMINGTON     RAIN      68  66  93 SW8       30.03S FOG
HUNTINGTON     TSTM      71  66  84 S17G43    30.05R VSB 3/4
CHARLESTON     MOSUNNY   86  63  45 SE7       30.06S
PINEVILLE*     SUNNY     82  66  57 MISG      30.18S
BECKLEY        MOSUNNY   76  63  64 SE8G18    30.19F
BLUEFIELD      MOSUNNY   75  63  66 VRB6      30.22F
$$

VAZ002-007-008-TNZ017-027-036-066-071-270000
...SOUTHWEST VIRGINIA/EAST TENNESSEE...

CITY           SKY/WX    TMP DP  RH WIND       PRES   REMARKS
WISE*          MOSUNNY   77  55  47 S10       30.18F
JONESVILLE*    PTCLDY    73  68  83 CALM      30.12F
ABINGDON*      PTSUNNY   81  61  51 SW9       30.17S
BRISTOL        CLOUDY    83  60  45 S14       30.13F
KNOXVILLE      CLOUDY    80  62  54 S14       30.07F
OAK RIDGE      CLOUDY    72  68  87 SW5       30.11F
CROSSVILLE     TSTM      69  66  90 S8        30.15S
NASHVILLE      CLOUDY    78  70  76 S9        30.05S
$$

...KEY TO REMARKS...
VSB - VISIBILITY IN MILES
WCI - WIND CHILL INDEX
HX  - HEAT INDEX

$$



USA.gov is the U.S. government's official web portal to all federal, state and local government web resources and services.